Regional Weather Roundup
Issued by NWS Pendleton, OR

Home | Current Version | Previous Version | Text Only | Print | Product List | Glossary On
Versions: 1 2 3 4 5 6 7 8 9 10 11 12 13 14 15 16 17 18 19 20 21 22 23 24 25 26 27 28 29 30 31 32 33 34 35 36 37 38 39 40 41 42 43 44 45 46 47 48 49 50
000
ASUS46 KPDT 311410
RWRPDT
PENDLETON REGIONAL WEATHER ROUNDUP
NATIONAL WEATHER SERVICE PENDLETON OREGON
700 AM PDT FRI JUL 31 2015

NOTE: FAIR INDICATES FEW OR NO CLOUDS BELOW 12,000 FEET WITH NO
SIGNIFICANT WEATHER AND/OR OBSTRUCTIONS TO VISIBILITY.

# INDICATES UNOFFICIAL STATION AND DATA

WAZ520-311510-
EAST SLOPES OF WASHINGTON CASCADES

CITY            SKY/WX      TMP DP  RH  WIND    PRES   REMARKS
#BULLFROG 2SW   N/A         63  39  41  CALM    27.75R
#BUMPING DAM    N/A         51  N/A N/A N3      N/A
#CLE ELUM HS    N/A         50  38  63  CALM    30.07R
#CLE ELUM LAKE  N/A         67  31  26  CALM    29.96R
#CLIFFDEL 2NW   N/A         51  37  59  CALM    N/A
#EASTON DOT     N/A         56  41  57  CALM    N/A
#GLENWOOD       N/A         47  44  89  CALM    30.03S
#MANASTASH CYN  N/A         60  33  36  CALM    30.11R
#NELSON         N/A         49  42  77  CALM    30.04R
#NELSON 3SW     N/A         61  36  39  CALM    30.18R
#PEOH POINT     N/A         69  34  27  W7      N/A
#RONALD 2NW     N/A         62  36  38  N1      30.03R
#SNOWDEN        N/A         57  33  40  CALM    N/A
#TEANAWAY 4NE   N/A         49  38  66  W2      N/A
#TROUT LAKE 1NE N/A         57  37  47  CALM    30.01R
$$

WAZ521-311510-
SIMCOE HIGHLANDS

CITY            SKY/WX      TMP DP  RH  WIND    PRES   REMARKS
#BICKLETON HS   N/A         70  19  14  NW2     N/A
#SATUS PASS DOT N/A         68  32  26  CALM    N/A
#CENTERVILLE 4W N/A         68  42  39  CALM    29.83S
#CENTERVILLE 1SWN/A         55  37  51  CALM    29.95S
#GOLDENDALE     N/A         57  36  45  E2      N/A
#GOLDENDALE 1NE N/A         57  25  29  N3      N/A
#GOLDENDALE 5WNWN/A         62  42  48  CALM    29.96R
#GOODNOE HILLS  N/A         73  48  41  SW5     N/A
#LYLE 6NE       N/A         70  45  41  CALM    29.93S
$$

WAZ026-311510-
KITTITAS VALLEY

CITY            SKY/WX      TMP DP  RH  WIND    PRES   REMARKS
ELLENSBURG AP   SUNNY       62  44  52  CALM    30.10R
YTC-OPS AREA    N/A         79  22  12  W16     30.12R
#ELLENSBURG CWU N/A         59  45  60  CALM    29.96R
#ELLENSBURG 3NE N/A         57  45  64  CALM    30.09R
#ELLENSBURG 1E  N/A         53  43  69  CALM    N/A
#KITTITAS 3S    N/A         51  48  89  CALM    30.01R
#THORP 6N       N/A         62  34  35  N8      30.00R
$$

WAZ027-311510-
YAKIMA VALLEY

CITY            SKY/WX      TMP DP  RH  WIND    PRES   REMARKS
SUNNYSIDE AP    SUNNY       57  52  83  CALM    30.03R
YAKIMA AIRPORT  SUNNY       64  47  54  W8      30.06R
#DONALD 2NE     N/A         80  24  13  N1      28.88R
#GRANDVIEW      N/A         62  51  67  CALM    30.00R
#MABTON         N/A         57  49  75  CALM    30.01S
#MOXEE 2E       N/A         67  35  30  E1      29.98S
#NACHES 2SW     N/A         68  44  42  W9      30.09R
#TERRACE HTS    N/A         60  51  72  CALM    29.95R
#TOPPENISH      N/A         63  52  67  CALM    29.90S
#WAPATO 4NE     N/A         80  24  13  N1      28.88R
#WEST VALLEY    N/A         60  46  60  CALM    29.98R
#W YAKIMA       N/A         70  46  42  N3      29.98R
#WHITE SWAN 5E  N/A         60  50  69  CALM    29.99R
#WILEY CITY 3W  N/A         67  38  34  CALM    30.04R
$$

WAZ028-311510-
LOWER COLUMBIA BASIN...WASHINGTON

CITY            SKY/WX      TMP DP  RH  WIND    PRES   REMARKS
PASCO           SUNNY       62  51  67  CALM    30.01R
RICHLAND AWOS   SUNNY       68  50  53  CALM    30.01R
#BASIN CITY 5SW N/A         60  49  67  CALM    30.01R
#BENTON CITY    N/A         68  47  47  CALM    29.88S
#CONNELL 5N     N/A         64  33  31  CALM    29.96S
#CONNELL 5NW    N/A         67  35  30  NE6     29.93S
#ELTOPIA 6NW    N/A         66  41  40  N3      28.99R
#KAHLOTUS       N/A         60  29  31  S8      29.97R
#KENNEWICK      N/A         63  39  41  CALM    27.75R
#KENNEWICK 3S   N/A         71  41  34  CALM    29.97R
#PASCO-BROADMOORN/A         70  49  47  NE1     29.88F
#PATERSON       N/A         66  47  50  CALM    29.97R
#PROSSER DOT    N/A         61  50  67  CALM    N/A
#PROSSER        N/A         71  42  35  CALM    29.97R
#SAGEMOOR 2W    N/A         61  47  60  CALM    29.83R
#TOUCHET 2S     N/A         51  47  86  CALM    29.98R
#WEST PASCO     N/A         62  48  60  CALM    29.97R
$$

WAZ029-311510-
FOOTHILLS OF THE BLUES...WASHINGTON

CITY            SKY/WX      TMP DP  RH  WIND    PRES   REMARKS
WALLA WALLA AP  SUNNY       73  35  25  E6      30.04R
#DAYTON SCHOOL  N/A         64  31  29  CALM    30.06R
#LOWDEN 2SE     N/A         57  48  72  CALM    29.98R
#PLEASANT VIEW 1N/A         69  31  24  CALM    29.98S
#PRESCOTT       N/A         62  40  44  CALM    29.97R
#SUDBURY        N/A         61  N/A N/A CALM    N/A
#WHITMAN COLLEGEN/A         74  42  32  CALM    30.01R
#WAITSBURG 8N   N/A         71  20  14  N1      29.88S
#WALLA WALLA U  N/A         66  45  47  CALM    29.97R
#WHITMAN MISSIONN/A         55  48  77  CALM    29.98
$$

WAZ030-311510-
BLUE MOUNTAINS...WASHINGTON

CITY            SKY/WX      TMP DP  RH  WIND    PRES   REMARKS
$$

ORZ009-041-WAZ024-311510-
COLUMBIA RIVER GORGE

CITY            SKY/WX      TMP DP  RH  WIND    PRES   REMARKS
HOOD RIVER AP   SUNNY       59  46  62  S3      30.06R
THE DALLES AP   SUNNY       67  46  47  SE5     30.02R
#ARLINGTON AIRPON/A         73  44  35  W2      N/A
#MARYHILL       N/A         71  48  44  CALM    N/A
#MOSIER 1S      N/A         67  37  33  CALM    30.05S
#MURDOCK        N/A         70  54  57  NW10    30.02R

$$

ORZ510-311510-
NORTH CENTRAL OREGON

CITY            SKY/WX      TMP DP  RH  WIND    PRES   REMARKS
#CHENOWITH 1W   N/A         69  45  42  NW17    N/A
#DUFUR 9E       N/A         78  40  26  CALM    29.98R
#GRASS VALLEY 1SN/A         69  39  33  SW6     29.98R
#MAUPIN SCHOOL  N/A         65  43  45  CALM    30.07R
#MORO SCHOOL    N/A         65  44  46  CALM    30.08S
#SHANIKO 4NW    N/A         76  33  21  VRB7    30.19S
#TYGH VALLEY 2NEN/A         63  40  43  CALM    29.99R
#WAPANITIA AIRPON/A         64  42  45  CALM    29.98S
#WASCO 5NE      N/A         74  45  35  CALM    29.96R
$$

ORZ511-311510-
CENTRAL OREGON

CITY            SKY/WX      TMP DP  RH  WIND    PRES   REMARKS
BEND AIRPORT    SUNNY       64  39  40  CALM    30.20R
MADRAS AIRPORT  SUNNY       61  37  41  S6      30.15R
PRINEVILLE AP   SUNNY       59  32  36  CALM    30.19R
REDMOND AIRPORT SUNNY       61  36  39  CALM    30.18R
#BEND 1SW       N/A         58  42  55  W2      N/A
#BEND-AWBREY    N/A         68  40  36  CALM    29.95R
#BEND-KIM LN    N/A         65  41  41  S6      30.18R
#CULVER         N/A         63  44  50  CALM    30.11R
#LAKE BILLY CHINN/A         66  -3   6  CALM    30.18R
#POWELL BUTTE 3EN/A         58  33  39  E1      N/A
#POWELL BUTTE   N/A         67  38  34  S1      29.80S
#PRINEVILLE 3N  N/A         56  46  69  S2      29.97R
#WARM SPRINGS   N/A         62  42  48  CALM    30.07R

$$


ORZ509-311510-
EAST SLOPES OF OREGON CASCADES

CITY            SKY/WX      TMP DP  RH  WIND    PRES   REMARKS
#BLUE BOX PASS  N/A         71  14  11  S3      N/A
#CAMP SHERMAN   N/A         47  37  68  CALM    30.05R
#LA PINE 4NW    N/A         44  36  73  CALM    30.07R
#SISTERS AIRPOR N/A         54  42  64  CALM    30.17S
#SISTERS 3N     N/A         52  34  50  CALM    30.34S
#SUNRIVER       N/A         50  43  77  CALM    29.91R
#WANOGA BUTTE D N/A         69  26  20  CALM    N/A

$$

ORZ044-311510-
LOWER COLUMBIA BASIN...OREGON

CITY            SKY/WX      TMP DP  RH  WIND    PRES   REMARKS
HERMISTON       SUNNY       65  43  45  S3      30.02R
#BOARDMAN SCHOOLN/A         58  48  69  CALM    30.02R
#BOARDMAN 8SW   N/A         67  44  43  NW1     29.98R
#ECHO 8SW       N/A         62  40  44  SW2     30.02R
#IONE SCHOOL    N/A         66  36  33  CALM    30.01R
#IRRIGON 4NW    N/A         58  53  83  SE2     N/A
#UMATILLA       N/A         62  44  52  CALM    29.93R
$$

ORZ507-311510-
NORTHERN FOOTHILLS OF THE BLUES

CITY            SKY/WX      TMP DP  RH  WIND    PRES   REMARKS
PENDLETON AIRPT SUNNY       68  32  26  SE6     30.06R
#ADAMS 3WNW     N/A         62  31  31  CALM    29.97S
#ATHENA         N/A         60  37  42  CALM    30.00S
#CAYUSE         N/A         73  38  28  E8      29.95S
#HELIX SCHOOL   N/A         58  33  39  N1      29.98R
#HELIX 3N       N/A         73  32  22  S10     30.04R
#HELIX 6SW      N/A         65  34  31  CALM    30.05
#HOLDMAN 5SE    N/A         68  35  29  SE1     30.06R
#HOLDMAN 6E     N/A         67  35  30  SE1     29.79R
#M-F GROVE ELEM N/A         66  32  28  CALM    30.02S
#M-FREEWATER 5SEN/A         70  42  36  E2      30.04S
#PENDLETON DNTN N/A         59  33  37  CALM    30.49R
#PDT AQUATIC CTRN/A         61  33  35  CALM    30.03S
#PDT SUNRIDGE   N/A         58  34  40  CALM    30.06S
#PENDLETON 7NW  N/A         62  37  39  E3      31.36S
#PILOT ROCK     N/A         67  34  29  CALM    30.09R
#TUTUILLA       N/A         59  40  49  CALM    30.01R
#UMAPINE 2E     N/A         61  47  60  CALM    29.99R
#WESTON SCHOOL  N/A         72  30  21  CALM    29.95R

$$

ORZ508-311510-
SOUTHERN FOOTHILLS OF THE BLUES

CITY            SKY/WX      TMP DP  RH  WIND    PRES   REMARKS
#CONDON SCHOOL  N/A         70  35  28  CALM    30.09S
#CONDON 5W      N/A         75  39  27  NW7     30.14R
#FOSSIL SCHOOL  N/A         61  34  36  CALM    30.09S
#HEPPNER EOC    N/A         70  34  26  E8      29.90S
#HEPPNER 4NE    N/A         74  33  22  CALM    29.95R
#LEXINGTON 2SE  N/A         70  35  28  SE12    30.05R
#OLEX 4N        N/A         71  40  32  S3      30.02R
#RUGGS 5NE      N/A         71  24  17  CALM    30.33R
#RUGGS 2SW      N/A         74  33  22  S9      29.97R

$$

ORZ502-503-311510-
BLUE MOUNTAINS

CITY            SKY/WX      TMP DP  RH  WIND    PRES   REMARKS
MEACHAM         SUNNY       48  37  65  CALM    30.21S
#HEPPNER 15SE   N/A         63  40  43  CALM    30.14S
#LONG CREEK HS  N/A         61  38  42  CALM    30.17S
#PIKES PEAK     N/A         82  30  15  CALM    27.99S
#TOLLGATE       N/A         64  40  41  CALM    30.12S
#TROY SCHOOL    N/A         59  43  55  CALM    29.92R
#UKIAH          N/A         46  39  76  CALM    30.10R
$$

ORZ505-311510-
JOHN DAY BASIN

CITY            SKY/WX      TMP DP  RH  WIND    PRES   REMARKS
JOHN DAY        SUNNY       64  31  29  SE12    30.22S
#JOHN DAY KJDY  N/A         53  42  66  NE2     30.27R
#DAYVILLE SCHOOLN/A         59  37  44  CALM    30.15R
#MITCHELL       N/A         64  40  41  E5      30.32R
#MONUMENT HS    N/A         57  41  55  CALM    30.14S
#MT. VERNON 5SE N/A         67  33  28  CALM    30.19S
#WINLOCK        N/A         65  34  31  CALM    30.24R
$$

ORZ506-311510-
OCHOCO AND JOHN DAY HIGHLANDS

CITY            SKY/WX      TMP DP  RH  WIND    PRES   REMARKS
#PAULINA SCHOOL N/A         47  38  71  CALM    30.17R
#PINE MTN OBS   N/A         68  33  27  NW3     N/A
#PRAIRIE CITY   N/A         50  42  74  CALM    30.25F
#SENECA         N/A         43  N/A N/A CALM    N/A
#SENECA 9NW     N/A         41  31  67  CALM    30.05S
$$

ORZ049-311510-
GRANDE RONDE VALLEY

CITY            SKY/WX      TMP DP  RH  WIND    PRES   REMARKS
LA GRANDE       SUNNY       57  36  45  CALM    30.19R
#COVE           N/A         56  47  72  CALM    30.19S
#COVE SCHOOL    N/A         56  44  64  CALM    30.19S
#COVE 6NW       N/A         49  42  77  CALM    30.10R
#ELGIN 3N       N/A         54  39  57  CALM    30.16R
#ELGIN 1E       N/A         51  39  63  CALM    N/A
#IMBLER SCHOOL  N/A         58  40  51  NE6     30.12R
#ISLAND CITY 4N N/A         60  50  69  CALM    30.03R
#LA GRANDE ELEM N/A         60  44  55  CALM    30.18S
#UNION 1S       N/A         55  43  64  CALM    29.96R
$$

ORZ050-311510-
WALLOWA COUNTY

CITY            SKY/WX      TMP DP  RH  WIND    PRES   REMARKS
#ENTERPRISE HS  N/A         49  42  77  CALM    30.22S
#IMNAHA SCHOOL  N/A         61  40  46  S3      30.15R
#IMNAHA 10S     N/A         62  36  38  SW3     30.18R
#JOSEPH 3N      N/A         57  41  55  CALM    30.23S
#JOSEPH 3W      N/A         72  38  29  CALM    30.09R
#LOSTINE        N/A         56  44  64  CALM    29.86S
#MT HOWARD 8000 N/A         64  26  23  CALM    30.56R
#PROMISE 1S     N/A         62  37  39  CALM    30.09S
#WALLOWA SCHOOL N/A         52  44  74  CALM    30.16S



$$



USA.gov is the U.S. government's official web portal to all federal, state and local government web resources and services.